Regional Weather Roundup
Issued by NWS Sioux Falls, SD

Home | Current Version | Previous Version | Text Only | Print | Product List | Glossary On
Versions: 1 2 3 4 5 6 7 8 9 10 11 12 13 14 15 16 17 18 19 20 21 22 23 24 25 26 27 28 29 30 31 32 33 34 35 36 37 38 39 40 41 42 43 44 45 46 47 48 49 50
000
ASUS43 KFSD 271010
RWRFSD

WEATHER ROUNDUP FOR SE SOUTH DAKOTA/SW MINNESOTA/NW IOWA
NATIONAL WEATHER SERVICE SIOUX FALLS SD
400 AM CST MON FEB 27 2017

NOTE: "FAIR" INDICATES FEW OR NO CLOUDS BELOW 12,000 FEET WITH NO
SIGNIFICANT WEATHER AND OR OBSTRUCTIONS TO VISIBILITY.


SDZ038>040-050-052>070-271100-
SOUTHEAST SOUTH DAKOTA

CITY           SKY/WX    TMP DP  RH WIND       PRES   REMARKS
BROOKINGS      CLEAR     23  19  85 SE3       29.85F
CHAMBERLAIN    CLEAR     21  16  81 S5        29.84S WCI  15
HURON          CLEAR     20  17  88 SE5       29.85S WCI  13
MADISON        FAIR      25  19  80 SW8       29.85F WCI  16
MITCHELL       CLEAR     23  17  78 S6        29.87F WCI  16
SIOUX FALLS    CLEAR     26  20  77 SW7       29.89F WCI  18
WINNER         FAIR      22  11  62 SW17G25   29.82F WCI   8
YANKTON        CLEAR     19  14  79 SE6       29.91S WCI  11
$$

MNZ071-072-080-081-089-090-097-098-271100-
SOUTHWEST MINNESOTA

CITY           SKY/WX    TMP DP  RH WIND       PRES   REMARKS
FAIRMONT       CLEAR     18  14  84 S12       29.95S WCI   5
JACKSON        PTCLDY    23  19  86 S7        29.92F WCI  15
LUVERNE        CLEAR     23  19  86 SE6       29.91S WCI  16
MARSHALL       CLEAR     29  21  72 SW15      29.87F WCI  18
MONTEVIDEO     CLOUDY    28  25  86 SW5       29.89F WCI  23
PIPESTONE      CLEAR     25  19  80 SW10      29.87F WCI  15
REDWOOD FALLS  CLEAR     28  21  75 SW10      29.89F WCI  19
TRACY          CLEAR     29  24  79 SW15      29.88F WCI  18
WINDOM         CLEAR     28  23  80 S8        29.91S WCI  20
WORTHINGTON    CLEAR     26  21  81 SW13      29.91F WCI  15
$$

IAZ001>003-012>014-020>022-031-032-NEZ013-014-SDZ071-271100-
NORTHWEST IOWA

CITY           SKY/WX    TMP DP  RH WIND       PRES   REMARKS
CHEROKEE         N/A     12  11  98 CALM      29.97S FOG
DENISON        CLEAR     19  18  93 CALM      29.96R
ESTHERVILLE    CLEAR     15  13  91 S10       29.94S WCI   2
LE MARS        CLEAR     21  19  93 S6        29.96F WCI  14
SHELDON        CLEAR     25  25 100 S9        29.92S WCI  15
SIOUX CITY     CLEAR     16  14  92 E5        29.97S WCI   9
SPENCER        CLEAR     17  14  88 S5        29.94F WCI  10
STORM LAKE     CLEAR     21  16  79 S12       29.95S WCI   9
$$

ABBREVIATIONS USED IN REMARKS
   TC - TEMPERATURE IN CELSIUS
  WCI - WIND CHILL INDEX
   HX - HEAT INDEX
  VSB - VISIBILITY




USA.gov is the U.S. government's official web portal to all federal, state and local government web resources and services.